Location: �terpigny
(49.8910°N, 2.9249°E)
Time: 13:03:57
(UTC+00:00)

Cosmos 1328 - Pass Details

Date: 24 October 2021
Orbit: 529 x 552 km, 82.5° (Epoch: 05 December)

Event Time Altitude Azimuth Distance (km) Brightness Sun altitude
Rises 17:17:31 0° 353° (N) 2,738 7.3 -6.8°
Reaches altitude 10° 17:19:45 10° 359° (N) 1,841 6.4 -7.1°
Maximum altitude 17:23:42 51° 76° (ENE) 699 4.0 -7.8°
Drops below altitude 10° 17:27:39 10° 154° (SSE) 1,828 6.3 -8.4°
Sets 17:29:51 0° 159° (SSE) 2,717 7.2 -8.7°
